[[{"header":{"parameterUnit":"m.s-1","parameterCategory":1,"la1":30.2991,"la2":30.254,"lo1":-89.0895,"lo2":-89.0444,"dy":0.0017,"dx":0.0017,"nx":28,"ny":28,"refTime":"2024-06-17T21:00:00:Z","depth":0,"parameterNumber":2,"parameterNumberName":"U-component_of_WINDS"},"data":[0,0,0,0,0,0,0,0,0,0,0,0,0,0,0,0,0,0,0,0,0,0,0,0,0,0,0,0,0,0,0,0,0,0,0,0,0,0,0,0,0,0,0,0,0,0,0,0,0,0,0,0,0,0,0,0,0,0,-10.9757,-10.9757,0,-10.979,-10.9791,-10.9791,-10.9585,-10.9579,-10.9573,-10.9567,-10.9598,-10.9604,-10.961,0,0,0,0,0,0,0,0,0,0,0,0,0,-10.9512,-10.9518,-10.9757,-10.9757,-10.9758,-10.979,-10.9791,-10.9791,-10.9586,-10.9578,-10.9571,-10.9565,-10.9596,-10.9603,-10.9611,0,0,0,0,0,0,0,0,0,0,0,0,0,-10.9589,-10.9519,-10.9757,-10.9659,-10.9651,-10.979,-10.9791,-10.9791,-10.9587,-10.9578,-10.9569,-10.9561,-10.9594,-10.9603,-10.9612,-10.9846,0,0,-10.9641,-10.9645,0,0,0,0,0,0,0,0,-10.9585,-10.9598,-10.9673,-10.9666,-10.9657,-10.9674,-10.9715,-10.981,-10.9589,-10.9611,-10.9567,-10.9557,-10.963,-10.9636,-10.9662,-10.9847,-10.9849,-10.9642,-10.9647,-10.9651,-10.9654,0,0,0,0,0,0,0,-10.958,-10.9596,-10.977,-10.9675,-10.9665,-10.9613,-10.9614,-10.9732,-10.9669,-10.9609,-10.9594,-10.9601,-10.9624,-10.9653,-10.9661,-10.9849,-10.9641,-10.965,-10.9655,-10.9659,-11.0228,-11.0237,0,0,0,0,0,0,-10.9588,-10.9593,-10.9769,-10.9771,-10.9599,-10.9624,-10.9626,-10.9678,-10.9668,-10.9658,-10.9608,-10.9591,-10.9641,-10.965,-10.9661,-10.9933,-10.9651,-10.966,-10.9665,-11.0219,-11.023,-11.024,0,0,0,0,0,0,-10.9584,-10.9606,-10.9768,-10.9678,-10.9695,-10.9638,-10.9698,-10.9683,-10.9711,-10.9667,-10.9655,-10.9649,-10.9635,-10.9648,-10.9802,-10.9931,-10.9664,-10.9673,-11.0208,-11.0222,-11.0235,-11.0481,0,0,0,0,0,0,-10.9578,-10.9606,-10.9694,-10.9682,-10.97,-10.9909,-10.9706,-10.969,-10.9729,-10.9706,-10.9703,-10.9693,-10.9629,-10.9789,-10.9811,-10.994,-10.968,-11.0195,-11.0214,-11.0231,-11.0461,-11.0502,-11.0537,0,0,0,0,0,-10.957,-10.9761,-10.97,-10.9722,-10.981,-10.9917,-10.9927,-10.985,-10.974,-10.9828,-10.98,-10.9694,-10.9915,-10.9806,-10.983,-10.9963,-11.0187,-11.0209,-11.0229,-11.0444,-11.0494,-11.0536,0,0,0,0,0,0,-10.9789,-10.9758,-10.9689,-10.9883,-10.9905,-10.9882,-10.999,-10.9905,-10.9957,-10.9934,-10.9835,-10.9836,-11.0006,-11.0,-10.988,-11.0189,-11.0031,-11.0058,-11.0186,-11.0233,-11.0271,-11.0267,-10.9688,0,0,0,0,0,-10.986,-10.9951,-10.9918,-11.0092,-11.0107,-11.0048,-11.0091,-11.003,-11.0048,-11.0055,-11.0038,-11.0059,-11.0132,-11.0183,-11.0248,-11.046,-11.0455,-11.0563,-11.0601,-11.0633,-11.0656,-11.0768,-11.0815,-11.031,-11.031,-11.031,0,0,-11.0007,-11.0002,-11.0064,-11.0136,-11.0145,-11.024,-11.0056,-11.0164,-11.0233,-11.0071,-11.0215,-11.0204,-11.022,-11.0405,-11.0484,-11.0404,-11.0795,-11.066,-11.0685,-11.0692,-11.0794,-11.0842,-11.0885,-11.0325,-11.0322,-11.032,0,0,-11.0324,-11.033,-11.0475,-11.0489,-11.0506,-11.0466,-11.0502,-11.0493,-11.048,-11.0623,-11.0504,-11.0584,-11.0714,-11.073,-11.0755,-11.1082,-11.0985,-11.1106,-11.1303,-11.1413,-11.1452,-11.1487,-11.1602,-11.1645,-11.113,-11.1131,-11.1131,0,-11.0504,-11.0643,-11.056,-11.0677,-11.0711,-11.0571,-11.0717,-11.0734,-11.0772,-11.0799,-11.0709,-11.087,-11.0871,-11.1056,-11.1136,-11.1162,-11.1198,-11.1104,-11.1454,-11.1487,-11.1519,-11.1627,-11.1671,-11.1145,-11.1144,-11.1142,-11.1141,0,-11.0863,-11.0962,-11.1077,-11.1119,-11.1167,-11.1298,-11.1234,-11.1292,-11.1228,-11.1198,-11.1346,-11.1343,-11.1405,-11.1445,-11.1383,-11.1623,-11.1573,-11.1471,-11.1309,-11.1583,-11.1683,-11.1724,-11.1166,-11.1161,-11.1157,-11.1153,0,0,-11.1315,-11.1312,-11.1355,-11.1372,-11.1383,-11.1457,-11.1582,-11.1644,-11.1696,-11.1728,-11.1829,-11.1943,-11.1849,-11.1878,-11.1817,-11.1914,-11.2171,-11.1799,-11.1798,-11.1867,-11.2434,-11.251,-11.2559,-11.2109,-11.2116,-11.2123,-11.2432,0,-11.1623,-11.1836,-11.1766,-11.1982,-11.2072,-11.1942,-11.2051,-11.2069,-11.2044,-11.2116,-11.2088,-11.217,-11.2041,-11.2057,-11.2148,-11.2121,-11.2283,-11.2098,-11.22,-11.2205,-11.2198,-11.2612,-11.2691,-11.2983,-11.2471,-11.2478,-11.2482,0,-11.201,-11.2059,-11.2285,-11.2281,-11.2316,-11.2415,-11.2467,-11.2538,-11.2556,-11.2531,-11.2566,-11.2485,-11.2606,-11.2448,-11.2613,-11.2489,-11.2527,-11.2521,-11.253,-11.2534,-11.2358,-11.2625,-11.3075,-11.3118,-11.2544,-11.2539,-11.2534,0,-11.2315,-11.2438,-11.2588,-11.2608,-11.2607,-11.268,-11.2683,-11.2692,-11.2735,-11.2781,-11.2807,-11.2867,-11.2899,-11.2946,-11.2883,-11.2774,-11.3058,-11.2894,-11.3039,-11.3041,-11.3102,-11.3099,-11.3562,-11.3132,-11.3131,-11.3131,-11.313,0,-11.2664,-11.2807,-11.2725,-11.2818,-11.2974,-11.2893,-11.3049,-11.3037,-11.3048,-11.3135,-11.3027,-11.3111,-11.3023,-11.31,-11.3051,-11.3195,-11.3211,-11.3193,-11.3178,-11.3202,-11.3204,-11.3223,-11.32,-11.3142,-11.314,-11.3137,-11.3135,0,-11.303,-11.2982,-11.3137,-11.3125,-11.3126,-11.3241,-11.323,-11.3315,-11.3284,-11.3396,-11.3418,-11.3369,-11.3453,-11.3396,-11.348,-11.3447,-11.3636,-11.3594,-11.363,-11.3618,-11.3765,-11.3751,-11.4255,-11.4317,-11.385,-11.3854,-11.3858,0,-11.3255,-11.3362,-11.3363,-11.3415,-11.3425,-11.351,-11.3553,-11.3478,-11.3527,-11.3557,-11.3638,-11.3713,-11.3769,-11.391,-11.3881,-11.3945,-11.3902,-11.4075,-11.391,-11.3931,-11.3902,-11.3896,-11.3905,-11.4107,-11.4112,-11.4117,-11.412,0,-11.3659,-11.3631,-11.3698,-11.3759,-11.3814,-11.3858,-11.3892,-11.394,-11.3864,-11.3926,-11.4011,-11.4055,-11.4142,-11.4217,-11.4271,-11.4272,-11.4184,-11.4173,-11.4209,-11.4233,-11.4249,-11.424,-11.3718,-11.4161,-11.4156,-11.4154,-11.4151,-11.415,-11.396,-11.4049,-11.4064,-11.4143,-11.4162,-11.4197,-11.4276,-11.4256,-11.4327,-11.4392,-11.4344,-11.4445,-11.4461,-11.4524,-11.4537,-11.4615,-11.4544,-11.4598,-11.4611,-11.4624,-11.4644,-11.424,-11.4625,-11.4623,-11.4622,-11.4621,-11.462,0,-11.4356,-11.436,-11.4434,-11.4487,-11.455,-11.4464,-11.4498,-11.4555,-11.4647,-11.467,-11.4728,-11.4826,-11.49,-11.4879,-11.4944,-11.5011,-11.4972,-11.503,-11.5023,-11.5025,-11.4705,-11.4665,-11.5061,-11.506,-11.506,-11.506,-11.506,-11.506,-11.457,-11.4716,-11.469,-11.4844,-11.4846,-11.4946,-11.4973,-11.5005,-11.5023,-11.5138,-11.5199,-11.5186,-11.5191,-11.5256,-11.532,-11.5312,-11.534,-11.5413,-11.539,-11.5091,-11.5047,-11.5006,-11.4968,-11.5421,-11.5421,-11.5703,-11.5706,-11.5708]},{"header":{"parameterUnit":"m.s-1","parameterCategory":1,"la1":30.2991,"la2":30.254,"lo1":-89.0895,"lo2":-89.0444,"dy":0.0017,"dx":0.0017,"nx":28,"ny":28,"refTime":"2024-06-17T21:00:00:Z","depth":0,"parameterNumber":3,"parameterNumberName":"V-component_of_WINDS"},"data":[0,0,0,0,0,0,0,0,0,0,0,0,0,0,0,0,0,0,0,0,0,0,0,0,0,0,0,0,0,0,0,0,0,0,0,0,0,0,0,0,0,0,0,0,0,0,0,0,0,0,0,0,0,0,0,0,0,0,0.5287,0.5288,0,0.537,0.5371,0.5372,0.5418,0.5418,0.5419,0.5419,0.55,0.5502,0.5504,0,0,0,0,0,0,0,0,0,0,0,0,0,0.5166,0.5168,0.5287,0.5288,0.5289,0.537,0.5371,0.5372,0.5418,0.5418,0.5419,0.5419,0.5499,0.5502,0.5504,0,0,0,0,0,0,0,0,0,0,0,0,0,0.5231,0.5169,0.5287,0.5322,0.5326,0.5369,0.5371,0.5372,0.5418,0.5418,0.5419,0.5419,0.5498,0.5501,0.5504,0.5518,0,0,0.5514,0.5515,0,0,0,0,0,0,0,0,0.5227,0.5235,0.5316,0.532,0.5324,0.5384,0.5358,0.5421,0.5418,0.5383,0.5419,0.5419,0.5461,0.5467,0.5482,0.5522,0.5525,0.5514,0.5516,0.5517,0.5518,0,0,0,0,0,0,0,0.5223,0.5232,0.532,0.5317,0.5322,0.5333,0.5342,0.537,0.5419,0.5386,0.539,0.5399,0.5463,0.5479,0.5484,0.5527,0.5514,0.5516,0.5518,0.5519,0.5583,0.5583,0,0,0,0,0,0,0.5213,0.5228,0.5317,0.5322,0.5275,0.5335,0.5345,0.5365,0.5419,0.5428,0.5399,0.5401,0.5474,0.5481,0.5487,0.5508,0.5517,0.552,0.5522,0.5583,0.5583,0.5583,0,0,0,0,0,0,0.521,0.522,0.5314,0.5276,0.5289,0.5337,0.5358,0.5366,0.5382,0.5429,0.5438,0.5406,0.5474,0.5483,0.5511,0.5511,0.5521,0.5524,0.5583,0.5583,0.5583,0.5548,0,0,0,0,0,0,0.5207,0.5219,0.5225,0.5276,0.5291,0.5336,0.5358,0.5367,0.5387,0.5391,0.5438,0.5446,0.5475,0.5506,0.5514,0.5516,0.5526,0.5584,0.5583,0.5583,0.555,0.5547,0.5545,0,0,0,0,0,0.5202,0.5211,0.5226,0.5236,0.53,0.5336,0.5345,0.5379,0.5387,0.5394,0.5424,0.5444,0.551,0.5508,0.5517,0.552,0.5584,0.5583,0.5583,0.5551,0.5548,0.5545,0,0,0,0,0,0,0.5158,0.5219,0.5235,0.5261,0.5293,0.5344,0.5353,0.5374,0.5404,0.5406,0.5446,0.5456,0.548,0.5503,0.55,0.5537,0.5549,0.555,0.5521,0.5519,0.5516,0.551,0.5529,0,0,0,0,0,0.5152,0.5178,0.5229,0.5247,0.5262,0.5305,0.5322,0.5346,0.538,0.5394,0.5426,0.5458,0.5486,0.5504,0.5532,0.5553,0.5564,0.556,0.5557,0.5555,0.5556,0.557,0.5568,0.5582,0.5582,0.5582,0,0,0.5138,0.5175,0.5188,0.5239,0.5267,0.5292,0.5316,0.5341,0.536,0.5397,0.5426,0.5451,0.5489,0.5514,0.5527,0.5534,0.5555,0.5555,0.5552,0.5555,0.5569,0.5568,0.5567,0.5582,0.5582,0.5582,0,0,0.5127,0.5157,0.5176,0.5204,0.5246,0.5275,0.5279,0.5327,0.5346,0.5375,0.5404,0.5427,0.5474,0.55,0.552,0.5519,0.554,0.5527,0.5514,0.5527,0.5526,0.5526,0.5526,0.5526,0.5528,0.5528,0.5528,0,0.5105,0.5145,0.5182,0.5207,0.5228,0.5265,0.5284,0.5309,0.5357,0.5371,0.5379,0.544,0.5468,0.55,0.55,0.5514,0.5521,0.5522,0.5524,0.5523,0.5523,0.5524,0.5524,0.5526,0.5526,0.5527,0.5527,0,0.5115,0.5143,0.5153,0.5201,0.5224,0.5245,0.5285,0.5303,0.5325,0.5353,0.5383,0.5418,0.5455,0.5464,0.5485,0.5499,0.5502,0.5516,0.5529,0.552,0.5521,0.5522,0.5524,0.5524,0.5525,0.5525,0,0,0.5078,0.5148,0.5151,0.5174,0.5224,0.5245,0.5268,0.5306,0.532,0.5353,0.5373,0.5413,0.5427,0.5449,0.5473,0.5484,0.5483,0.5497,0.5499,0.5494,0.5501,0.5491,0.5491,0.5496,0.5497,0.5497,0.5498,0,0.5074,0.5119,0.5154,0.5185,0.5211,0.5247,0.5267,0.5299,0.5326,0.5351,0.538,0.5407,0.5423,0.5437,0.545,0.548,0.5485,0.548,0.5515,0.5516,0.5505,0.5491,0.548,0.548,0.5499,0.5499,0.5499,0,0.5076,0.5109,0.5143,0.5192,0.5204,0.5221,0.5259,0.5283,0.532,0.5338,0.5364,0.5389,0.5415,0.5425,0.5461,0.5457,0.5474,0.5491,0.5492,0.5496,0.5507,0.5496,0.5481,0.5481,0.55,0.55,0.55,0,0.5046,0.5099,0.5127,0.5145,0.5202,0.5213,0.5237,0.5275,0.5296,0.5328,0.5342,0.5376,0.5394,0.542,0.5454,0.5458,0.5486,0.5499,0.5502,0.5501,0.5506,0.5506,0.5494,0.5516,0.5516,0.5516,0.5516,0,0.5038,0.5058,0.5114,0.5131,0.5154,0.5194,0.5215,0.5242,0.5276,0.5298,0.533,0.535,0.5394,0.5419,0.5446,0.5472,0.548,0.5495,0.5502,0.5492,0.5491,0.5504,0.5505,0.5516,0.5516,0.5516,0.5516,0,0.5009,0.5047,0.508,0.5132,0.5145,0.516,0.5204,0.5222,0.525,0.5278,0.5287,0.5331,0.5363,0.54,0.5442,0.546,0.5484,0.5494,0.5472,0.5476,0.5477,0.5477,0.5473,0.5475,0.5495,0.5495,0.5495,0,0.5001,0.5018,0.5072,0.509,0.5114,0.5142,0.5164,0.5203,0.5224,0.5269,0.5281,0.5315,0.5345,0.5393,0.5429,0.5462,0.5473,0.547,0.5478,0.5469,0.5474,0.5473,0.5475,0.5468,0.5467,0.5467,0.5467,0,0.4985,0.5003,0.5034,0.5071,0.5096,0.5127,0.5159,0.5172,0.5218,0.524,0.5274,0.5297,0.5341,0.5375,0.5413,0.5437,0.5459,0.5464,0.5466,0.5457,0.5444,0.5452,0.5466,0.5464,0.5464,0.5464,0.5464,0.5464,0.4967,0.4983,0.5024,0.5057,0.5086,0.5116,0.5135,0.5167,0.5196,0.5237,0.5258,0.5291,0.5329,0.5382,0.5406,0.5432,0.5439,0.5443,0.5444,0.5444,0.5442,0.5439,0.5439,0.5439,0.5439,0.5439,0.5439,0,0.4952,0.4981,0.5011,0.5056,0.5082,0.5102,0.5139,0.5159,0.5188,0.5222,0.5251,0.529,0.5323,0.5362,0.5397,0.541,0.5422,0.5418,0.5418,0.5423,0.5432,0.5427,0.5409,0.5409,0.5409,0.5409,0.5409,0.5409,0.4948,0.4977,0.5001,0.5044,0.5073,0.5107,0.5126,0.5154,0.5181,0.5223,0.5252,0.5277,0.5313,0.5351,0.5382,0.5393,0.5405,0.5398,0.5412,0.542,0.5422,0.5425,0.542,0.54,0.54,0.5401,0.54,0.54]}]]